Starlink 11393

operational
NORAD ID: 62016 Int'l Des: 2024-213 Owner: SPXS Country: US Constellation: starlink
LEOCIRCULAR

Starlink 11393について

説明を読み込み中...

リアルタイム位置

3D地球を読み込み中...

次回通過

高度履歴

Altitude vs Time

uPlot chart will show altitude changes over time

軌道要素

1 62016U 24213J 25260.22005554 .00153322 00000-0 12452-2 0 9997
2 62016 53.1572 176.1219 0002174 34.7547 325.3613 15.69746059 47670
Epoch: Sep 17, 2025 • Age: 20 hours

現在のステータス

高度 366.9 km
速度 7.69 km/s
衛星直下点 -28.09°S, 136.55°E
打ち上げ日 Nov 18, 2024
運用期間 0.8 years
タイプ internet

技術仕様

分類 Payload
質量 960.00 kg
乾燥質量 910.00 kg
総質量 960.00 kg
長さ 0.30 m
直径 4.10 m
スパン 29.00 m
形状 Box + pan
製造者 SPXS
バスタイプ Starlink V2MD
フェーズステータス In Orbit
所有者/国 SPXS/US

大規模コンステレーション

Loading constellations...